Miscellaneous Local Product
Issued by NWS North Platte, NE

Home | Current Version | Previous Version | Graphics & Text | Print | Product List | Glossary On
Versions: 1 2 3 4 5 6 7 8 9 10 11 12 13 14 15 16 17 18 19 20 21 22 23 24 25 26 27 28 29 30 31 32 33 34 35 36 37 38 39 40 41 42 43 44 45 46 47 48 49 50
000
AXUS43 KLBF 222110
MISLBF


WESTERN AND NORTH CENTRAL NEBRASKA HOURLY WEATHER ROUNDUP
NATIONAL WEATHER SERVICE NORTH PLATTE NE
300 PM CST SAT NOV 22 2014

***STATIONS NOT REPORTING VARIABLES SUCH AS SKY/WEATHER OR
PRESSURE ARE PROVIDED BY THE NEBRASKA DEPARTMENT OF
ROADS...RAWS...AND APRS NETWORKS...AND ARE NOT UNDER
NATIONAL WEATHER SERVICE QUALITY CONTROL***

...OBSERVATIONS IN AND NEAR THE EASTERN PANHANDLE OF NEBRASKA...

CITY           SKY/WX    TMP DP  RH WIND       PRES   REMARKS
PINE RIDGE     CLOUDY    51  28  41 W10       29.47F
CHADRON        CLOUDY    56  29  35 W6        29.47F
ALLIANCE       CLOUDY    58  21  24 SW16      29.53F
SIDNEY         MOSUNNY   60  18  19 SW7       29.57F
WHITECLAY        N/A     51  28  40 CALM        N/A
LISCO            N/A     67   1   7 S7          N/A
BIG SPRINGS      N/A     60  21  22 CALM        N/A
LEWELLEN         N/A     16 -27  13 CALM        N/A
$$

...OBSERVATIONS IN NORTH CENTRAL NEBRASKA...

CITY           SKY/WX    TMP DP  RH WIND       PRES   REMARKS
VALENTINE      MOSUNNY   62  26  25 W21G31    29.45F
THEDFORD       MOSUNNY   65  23  19 SW17      29.52F
AINSWORTH      MOSUNNY   66  21  18 SW15G23   29.46F
O`NEILL        CLOUDY    61  33  35 S15G21    29.50F
ORD            CLOUDY    58  28  32 S14       29.55F
BROKEN BOW     PTSUNNY   64  25  22 S17G29    29.55F
BROWNLEE         N/A     68  17  14 W31         N/A
BREWSTER         N/A     66  24  20 SW17        N/A
COMSTOCK         N/A     63  26  24 S12         N/A
$$

...OBSERVATIONS IN SOUTHWEST NEBRASKA AND FAR NORTHEAST COLORADO...

CITY           SKY/WX    TMP DP  RH WIND       PRES   REMARKS
WRAY           FAIR      69   9   9 SW8       29.55F
HOLYOKE        FAIR      68  10  10 SW6       29.56F
IMPERIAL       PTSUNNY   68  14  12 CALM      29.54F
OGALLALA       PTSUNNY   62  23  22 SW5       29.56F
NORTH PLATTE   PTSUNNY   66  16  14 SW10      29.55F
MCCOOK         PTSUNNY   70  20  15 S15G23    29.56F
LEXINGTON      CLOUDY    61  27  27 S13       29.57F
PAXTON           N/A     61  24  24 S6          N/A
GOTHENBURG       N/A     59  28  30 S7          N/A
CALLAWAY         N/A     63  29  28 S20         N/A
$$

...SOME WEATHER OBSERVATIONS FROM AROUND THE REGION...

CITY           SKY/WX    TMP DP  RH WIND       PRES   REMARKS
DENVER         CLOUDY    60  17  18 N7        29.58F
LARAMIE        PTSUNNY   45  20  36 SW21G31   29.66S
CHEYENNE       PTSUNNY   54  17  23 W25G35    29.61F
SCOTTSBLUFF    CLOUDY    58  23  26 W8        29.54F
RAPID CITY     CLOUDY    54  29  38 W10       29.39F
PIERRE         MOSUNNY   44  33  65 CALM      29.36F
WINNER         FAIR      62  29  28 SW17      29.40F
SIOUX FALLS    PTSUNNY   44  36  73 S16       29.54F
OMAHA          MOSUNNY   56  43  61 S12       29.68F
GRAND ISLAND   MOSUNNY  N/A N/A N/A S13       29.62F
KANSAS CITY    CLOUDY    58  54  86 S15       29.80F
WICHITA        PTSUNNY   62  54  74 S22G28    29.74F
HAYS           SUNNY     66  36  32 S18G26    29.65F
LIBERAL        SUNNY     72  27  18 S21G26    29.69F
GOODLAND       MOSUNNY   67  14  13 SW17      29.58F
$$



USA.gov is the U.S. government's official web portal to all federal, state and local government web resources and services.